Temperature
22 23 23 23 23 23 23 22 22 22 22 21 21 21 21 20 19 19 19 19 18 18 17 16 16 16 16 15 15 15 15 15 15 14 14 14 14 14 14 14 14 14 14 14
23 23 23 22 22 22 22 22 22 21 21 21 21 21 21 20 20 19 19 19 18 18 17 16 16 15 15 15 15 15 15 14 14 14 14 14 14 14 14 14 14 13 13 13
23 23 22 22 22 22 22 22 22 21 21 21 21 21 21 21 20 19 18 18 18 17 17 16 16 15 15 15 15 15 15 14 14 14 14 14 14 13 13 13 13 13 13 13
23 22 22 22 22 22 22 22 21 21 21 21 21 21 22 21 20 19 19 18 17 17 16 16 15 15 15 15 15 14 14 14 14 14 14 14 13 13 13 13 13 13 13 13
22 22 22 22 22 22 22 21 21 21 21 21 21 21 22 21 21 20 19 18 17 17 16 16 15 15 15 15 14 14 14 14 14 14 13 13 13 13 13 13 13 12 12 12
22 22 22 22 22 21 21 21 21 21 21 21 21 21 21 22 21 21 20 18 17 16 16 15 15 15 14 14 14 14 14 14 13 13 13 13 13 13 13 12 12 12 12 12
22 22 21 21 21 21 21 21 21 21 21 21 21 21 21 21 21 21 20 18 17 16 15 15 15 14 14 14 14 14 14 13 13 13 13 13 12 12 12 12 12 12 11 11
21 21 21 21 22 22 21 22 21 20 21 21 21 21 21 21 19 19 18 18 16 16 15 15 14 14 14 14 14 14 13 13 13 13 13 12 12 12 12 12 12 11 11 11
21 21 21 21 21 22 21 21 22 21 21 20 21 21 21 20 19 18 18 17 16 16 15 15 14 14 14 14 13 13 13 13 13 12 12 12 12 12 12 11 11 11 11 11
21 20 21 20 21 20 21 21 21 21 20 20 21 21 21 20 20 19 18 17 16 15 15 14 14 14 14 13 13 13 13 13 12 12 12 12 12 11 11 11 11 11 10 10
20 20 20 20 20 21 20 20 20 21 20 20 20 21 21 21 20 19 18 17 16 15 15 14 14 13 13 13 13 12 12 12 12 12 12 11 11 11 11 11 11 10 10 10
19 20 20 20 20 19 20 21 20 20 20 20 20 20 21 20 19 18 18 17 16 15 14 14 14 13 13 13 12 12 12 12 12 12 11 11 11 11 11 10 10 10 10 10
19 19 19 20 19 19 19 20 20 20 20 20 20 20 20 19 19 18 17 16 15 14 14 14 13 13 13 12 12 12 12 12 12 11 11 11 11 11 11 10 10 10 10 10
18 19 19 19 19 19 19 18 18 19 19 19 20 20 20 19 18 17 16 15 15 14 14 13 13 13 12 12 12 12 11 11 11 11 11 11 11 10 10 10 10 10 10 10
18 19 19 19 19 18 18 18 18 18 19 19 19 19 19 19 18 17 16 15 14 14 13 13 12 12 12 12 12 11 11 11 11 11 11 11 10 10 10 10 10 10 9 9
18 18 18 18 18 18 17 17 17 17 18 18 18 18 18 17 17 16 16 15 14 13 13 12 12 12 12 12 11 11 11 11 11 10 10 10 10 10 10 10 10 9 9 9
17 17 17 18 17 17 17 17 17 17 17 17 17 18 17 17 16 16 15 14 14 13 12 12 12 11 11 11 11 11 11 10 10 10 10 10 10 10 10 10 10 9 9 9
17 17 17 17 17 16 17 17 17 17 16 17 17 16 16 16 15 14 14 14 13 12 12 11 11 11 11 11 11 11 10 10 10 10 10 10 10 10 10 9 9 9 9 9
16 16 16 16 16 17 16 16 16 16 16 16 16 16 15 14 14 14 13 13 12 12 11 11 11 10 10 10 10 10 10 10 10 10 9 9 9 9 9 9 9 9 8 8
15 16 16 16 15 16 16 16 15 16 16 15 15 15 14 14 15 15 13 12 11 11 11 11 10 10 10 10 10 10 9 9 9 9 9 9 9 9 9 9 9 9 8 8
15 15 15 15 16 16 15 14 15 15 15 14 14 14 14 14 14 13 12 11 11 11 10 10 10 10 10 10 9 9 9 9 9 9 9 9 9 9 9 9 8 8 8 8
15 15 15 15 15 15 14 14 14 15 14 13 13 13 13 12 12 11 11 10 10 10 10 10 10 9 9 9 9 9 9 9 9 9 9 9 9 9 8 8 8 8 8 7
14 15 15 15 15 14 13 13 13 12 12 12 12 11 11 11 11 10 10 10 9 9 9 9 9 9 9 9 9 8 8 8 8 8 8 8 8 8 8 8 8 8 7 7
14 13 13 13 14 13 12 12 11 11 11 11 11 10 10 10 10 10 9 9 9 9 9 9 9 8 8 8 8 8 8 8 8 8 8 8 8 8 8 8 7 7 7 6
13 12 13 13 13 12 12 11 11 10 10 10 10 10 9 9 9 9 9 9 8 8 8 8 8 8 8 8 8 8 8 8 7 7 7 7 7 7 7 7 7 7 7 6
12 12 13 13 13 12 12 11 10 10 9 9 9 9 9 9 8 9 8 8 8 8 8 8 8 8 8 8 7 7 7 7 7 7 7 7 7 7 6 6 6 6 6 6
Wind_Speed
3 4 4 4 3 2 2 3 3 1 1 3 4 4 5 5 6 6 6 6 5 5 4 4 4 4 4 4 4 4 4 4 4 3 3 2 2 2 2 3 4 4 4 4
4 4 3 3 3 3 4 4 3 2 1 3 4 5 5 6 6 6 6 6 7 6 5 5 4 5 4 4 4 4 4 4 4 3 2 2 2 2 2 2 3 4 4 4
5 2 3 5 5 5 4 5 4 3 2 4 4 6 6 5 5 5 6 6 6 6 6 6 5 5 5 4 4 3 4 4 3 4 3 3 3 2 2 2 2 3 3 4
4 3 4 5 6 6 5 3 4 5 6 4 5 5 5 6 6 6 6 6 6 6 6 6 6 6 6 5 5 4 4 4 4 4 3 4 3 2 2 1 2 2 3 3
3 3 5 5 5 6 3 2 4 6 6 6 6 6 3 5 5 6 6 6 6 7 7 6 6 6 5 5 5 4 4 4 4 4 4 4 3 2 2 2 2 2 2 3
3 2 3 3 2 3 3 4 4 5 6 7 5 7 4 4 4 4 5 6 6 6 6 5 5 5 5 5 5 5 4 4 4 4 4 4 3 3 3 2 2 1 1 1
4 4 2 3 4 4 5 6 4 5 5 5 2 5 4 1 2 4 4 4 5 6 5 5 5 5 5 5 5 5 5 5 5 4 4 4 4 3 3 2 2 1 1 1
4 4 3 2 5 4 6 6 5 4 5 4 4 6 1 2 1 1 2 3 5 6 6 5 5 5 5 5 6 6 6 5 5 4 4 5 4 3 3 3 2 2 1 1
4 3 1 2 3 5 6 6 5 6 6 6 5 4 3 2 2 1 2 3 4 5 6 5 5 4 4 4 5 6 6 6 5 5 4 4 4 4 3 3 3 2 2 1
3 5 2 2 4 3 5 4 5 5 5 6 5 6 3 4 3 2 2 3 4 5 5 5 5 4 4 4 4 5 6 6 5 5 4 4 4 4 4 3 3 2 2 2
4 5 4 4 5 5 5 6 6 5 5 5 5 2 1 0 1 2 3 3 4 4 5 5 5 4 4 4 4 4 5 5 5 4 4 5 5 5 4 3 3 3 3 3
2 4 5 5 2 3 5 6 7 7 6 7 7 3 3 1 0 1 2 2 3 4 4 4 4 4 4 4 4 4 4 5 5 4 4 5 5 5 5 4 3 3 3 3
2 4 5 4 4 4 5 5 7 7 7 9 9 5 3 1 1 1 1 1 2 3 4 4 4 4 4 4 4 4 4 4 4 4 4 5 5 5 5 4 4 4 4 3
3 5 6 7 5 4 5 5 7 8 8 10 11 10 5 4 4 3 2 1 2 3 3 3 4 4 4 4 5 4 4 4 4 4 4 5 5 4 4 4 4 4 4 4
4 6 7 9 8 7 7 8 8 11 11 11 10 10 8 6 5 4 3 2 2 3 3 3 3 3 4 4 4 5 4 4 4 4 4 5 4 4 4 4 4 4 4 4
4 5 7 8 6 7 8 8 9 10 11 12 11 10 7 5 4 4 3 3 3 3 3 3 3 3 3 4 4 5 5 5 5 5 4 4 4 4 4 4 4 4 4 4
4 4 6 7 5 7 7 6 7 6 7 8 9 7 4 5 4 5 4 4 3 3 3 3 3 3 3 3 4 4 5 5 5 5 4 5 5 4 4 4 4 4 4 4
6 6 5 5 5 7 1 1 4 5 5 5 6 6 6 5 5 4 3 3 3 3 4 3 3 3 3 3 3 3 4 5 5 5 5 5 5 5 4 4 4 4 4 4
6 6 5 5 7 7 4 3 4 5 5 4 4 4 4 4 4 3 3 3 4 4 4 3 3 3 3 2 2 3 3 4 5 5 5 5 5 5 5 5 4 4 4 4
3 6 6 6 7 6 3 2 3 5 5 2 3 3 3 3 5 4 3 3 4 3 3 3 3 3 3 2 3 3 4 4 4 4 4 5 5 5 5 5 4 4 4 5
3 4 7 8 8 5 3 2 2 4 3 2 3 4 4 5 6 5 4 4 3 3 3 2 3 3 3 3 3 4 4 4 4 3 3 3 4 4 4 4 4 4 4 4
5 5 6 6 7 5 1 2 2 3 4 3 4 5 5 6 6 5 5 4 3 2 2 2 2 3 2 3 3 4 4 3 3 3 3 3 3 3 3 4 4 4 4 4
5 4 3 4 4 2 1 1 2 3 4 4 5 5 5 6 6 6 5 4 3 3 2 2 2 2 2 3 3 4 3 2 3 3 3 3 3 3 3 3 3 3 4 3
3 3 4 5 5 5 4 3 3 4 5 5 5 5 5 6 6 5 5 4 3 3 3 2 2 2 2 3 3 3 3 3 3 3 3 3 3 3 2 2 3 3 3 3
4 3 5 7 6 5 5 5 4 4 4 5 5 5 5 5 6 6 5 4 3 3 2 2 3 3 3 2 3 2 2 3 3 3 3 3 3 3 3 2 2 3 2 2
6 6 7 6 5 6 6 5 5 5 5 5 5 6 6 6 6 5 5 4 3 3 2 2 3 3 2 2 2 2 2 3 4 3 3 3 3 3 3 2 1 0 1 1
Wind_Direction
167 191 192 186 194 236 220 219 212 195 184 211 225 221 206 199 201 205 200 193 193 190 173 164 163 166 163 158 160 160 166 164 161 155 155 145 131 112 95 79 68 63 56 52
183 200 189 178 184 199 217 226 220 189 191 231 234 243 223 213 215 218 215 206 199 188 176 168 164 164 170 168 169 168 171 172 172 165 161 154 138 119 96 83 71 60 54 49
214 188 173 191 202 213 225 242 239 232 214 223 244 239 217 210 215 218 224 219 208 197 188 177 175 173 173 175 175 178 177 171 173 171 160 150 145 147 121 106 87 62 60 56
224 200 197 215 225 242 238 238 232 224 233 245 245 262 226 209 209 216 219 212 207 197 192 184 180 180 179 181 178 178 175 169 167 169 169 166 163 149 135 121 111 94 70 62
218 209 217 229 239 245 252 207 218 229 247 257 240 255 230 195 218 217 212 207 202 195 191 186 186 185 183 180 178 178 177 174 174 175 168 178 171 156 142 137 130 111 80 63
238 217 244 241 225 223 180 185 200 219 239 248 244 246 249 208 233 221 206 201 195 188 185 183 183 179 179 179 178 179 180 180 181 185 181 182 176 166 158 165 154 135 114 82
222 201 191 218 205 185 214 236 239 228 227 245 219 245 254 199 239 233 220 206 192 183 178 178 176 173 177 182 184 184 184 186 187 190 188 187 190 185 183 185 176 166 145 127
240 217 192 217 242 236 226 245 258 268 264 265 219 240 212 147 161 237 205 185 176 176 176 176 177 176 180 185 189 191 190 192 192 196 201 198 194 196 195 197 195 190 176 161
263 244 170 235 249 244 227 234 272 271 268 266 239 229 215 178 166 167 170 173 175 179 177 179 180 180 182 185 192 196 195 195 196 200 204 204 198 194 195 196 193 192 186 172
277 268 233 220 206 219 249 221 229 248 259 260 250 244 223 184 202 187 191 191 186 184 185 185 184 186 191 190 189 195 200 200 198 199 196 198 196 190 194 192 190 189 189 182
276 261 249 231 235 237 214 219 233 247 257 264 265 251 90 288 227 216 214 208 197 193 194 191 189 190 192 188 188 192 198 199 196 197 195 196 195 189 190 193 195 198 196 192
263 268 262 253 242 262 244 240 237 251 250 251 268 266 109 64 327 235 233 205 198 196 194 193 190 191 191 190 192 191 195 198 197 197 196 199 197 189 192 194 198 200 202 203
240 257 268 234 200 209 237 242 244 255 263 254 256 253 137 0 328 265 248 216 192 192 194 194 195 198 198 198 198 195 196 198 194 192 192 195 199 195 197 196 198 203 205 207
259 252 261 272 292 280 260 254 244 245 254 258 257 271 274 293 290 280 260 250 217 198 199 201 206 207 208 206 201 202 200 197 195 190 188 189 194 195 197 198 202 206 208 211
250 261 268 276 280 267 266 266 255 247 257 266 276 277 285 298 295 279 264 256 229 215 216 218 216 216 212 211 209 208 204 198 196 195 193 191 192 194 194 199 206 207 209 216
248 265 270 269 264 251 262 271 260 254 255 261 271 275 298 299 290 281 272 258 243 239 235 234 231 229 224 220 216 210 210 205 201 203 201 194 194 193 194 201 204 202 209 219
237 257 266 269 269 260 256 261 256 254 255 254 263 282 301 294 292 290 284 261 251 255 253 252 247 239 240 236 227 219 215 206 206 206 200 199 198 196 201 202 204 206 212 219
242 247 258 268 264 248 260 306 267 262 269 267 275 289 289 292 295 292 285 276 270 263 260 261 262 258 253 247 239 224 216 211 209 206 208 202 203 202 205 207 211 217 220 220
235 236 243 250 260 264 261 266 259 262 268 299 285 299 311 313 284 274 286 289 282 273 264 257 256 256 249 240 234 217 210 213 212 212 217 208 205 205 206 207 215 222 224 225
210 228 238 241 254 257 285 330 284 259 250 319 289 293 306 301 290 301 304 285 281 281 273 263 256 250 237 236 225 214 212 213 217 217 219 211 206 205 207 209 215 223 227 229
206 220 232 243 251 257 314 331 204 235 309 344 295 289 282 279 298 310 298 282 274 271 270 261 249 242 237 229 218 218 219 225 228 222 216 207 203 206 208 213 219 220 223 226
230 226 230 239 245 253 61 158 213 309 344 326 313 312 298 292 296 294 289 282 276 274 267 261 244 241 235 220 218 219 224 231 221 211 206 201 198 198 200 206 216 216 213 217
229 242 249 240 255 306 143 222 321 325 309 309 308 311 307 300 291 286 283 280 272 267 256 259 250 245 229 215 218 219 217 213 205 202 203 197 192 196 197 200 205 207 207 214
230 245 241 250 258 269 270 277 296 297 296 303 304 304 298 295 295 290 283 276 271 262 256 261 251 244 243 228 224 221 203 195 195 197 197 193 189 191 193 199 201 203 208 214
250 218 240 251 266 279 269 277 286 293 298 303 307 302 297 292 290 286 283 277 270 261 256 257 256 247 239 229 218 215 201 197 200 199 194 187 185 187 191 194 207 213 218 229
235 230 243 256 264 269 277 293 294 290 291 295 300 301 300 290 284 281 276 273 266 259 262 268 273 274 265 237 217 206 202 207 204 198 197 194 190 193 195 193 196 55 225 178
Height
1506 1505 1505 1505 1506 1507 1507 1509 1511 1512 1513 1515 1514 1515 1516 1519 1521 1522 1522 1523 1525 1527 1529 1530 1531 1532 1533 1534 1535 1536 1536 1537 1538 1538 1539 1539 1540 1540 1540 1540 1540 1540 1540 1539
1504 1505 1505 1506 1508 1508 1508 1510 1511 1513 1514 1514 1514 1514 1514 1516 1518 1520 1520 1522 1523 1525 1527 1528 1530 1530 1532 1533 1534 1535 1536 1537 1537 1538 1539 1539 1539 1539 1539 1539 1539 1539 1539 1539
1503 1505 1506 1507 1508 1508 1508 1509 1510 1512 1514 1513 1514 1514 1511 1513 1516 1518 1519 1520 1522 1524 1525 1527 1528 1529 1530 1531 1532 1533 1534 1535 1536 1537 1538 1538 1538 1539 1539 1539 1539 1539 1539 1538
1503 1505 1506 1506 1507 1506 1509 1508 1509 1512 1513 1512 1513 1514 1507 1508 1512 1514 1516 1518 1519 1521 1523 1525 1526 1527 1529 1530 1531 1532 1533 1534 1535 1535 1536 1537 1537 1538 1538 1538 1538 1538 1538 1538
1503 1504 1505 1506 1506 1506 1506 1508 1508 1509 1510 1510 1510 1511 1505 1506 1508 1509 1513 1515 1517 1519 1521 1523 1524 1525 1527 1528 1529 1531 1532 1533 1533 1534 1535 1536 1537 1537 1537 1537 1537 1537 1537 1537
1503 1505 1505 1505 1506 1507 1507 1509 1509 1508 1508 1514 1508 1509 1507 1502 1504 1506 1510 1513 1515 1517 1519 1521 1522 1524 1525 1526 1527 1529 1530 1531 1531 1532 1533 1534 1535 1535 1536 1536 1536 1536 1536 1536
1504 1503 1505 1506 1505 1507 1506 1508 1513 1514 1513 1510 1506 1508 1505 1500 1502 1504 1507 1510 1513 1515 1517 1519 1520 1521 1523 1524 1525 1527 1528 1529 1530 1531 1532 1533 1533 1534 1534 1535 1535 1535 1535 1535
1506 1505 1503 1504 1504 1504 1504 1504 1512 1518 1513 1506 1506 1506 1500 1501 1504 1506 1507 1509 1511 1513 1515 1517 1518 1519 1520 1522 1523 1525 1526 1527 1528 1529 1530 1531 1531 1532 1533 1533 1533 1534 1534 1533
1505 1505 1503 1504 1504 1503 1503 1503 1502 1506 1506 1509 1502 1500 1499 1501 1503 1505 1507 1508 1510 1512 1513 1515 1517 1518 1519 1520 1521 1522 1523 1525 1526 1527 1528 1529 1529 1530 1530 1531 1531 1532 1532 1531
1504 1506 1503 1504 1504 1504 1502 1501 1505 1507 1513 1511 1504 1499 1497 1499 1500 1503 1505 1507 1509 1510 1512 1514 1515 1516 1517 1518 1519 1520 1521 1522 1523 1524 1525 1526 1527 1527 1528 1528 1529 1529 1529 1529
1506 1506 1504 1503 1502 1501 1503 1504 1503 1503 1504 1509 1508 1500 1492 1495 1498 1500 1503 1505 1507 1509 1510 1512 1513 1514 1515 1516 1516 1517 1518 1520 1521 1522 1522 1523 1524 1525 1525 1526 1526 1527 1527 1527
1507 1505 1504 1501 1501 1502 1501 1500 1501 1506 1504 1503 1504 1502 1493 1496 1498 1500 1502 1504 1506 1507 1509 1510 1511 1512 1513 1514 1514 1515 1516 1517 1518 1519 1520 1521 1521 1522 1523 1523 1524 1524 1525 1525
1508 1507 1507 1503 1505 1504 1502 1501 1501 1501 1501 1501 1503 1500 1494 1497 1498 1500 1502 1503 1505 1506 1507 1508 1509 1510 1510 1511 1512 1513 1514 1515 1515 1516 1517 1518 1519 1519 1520 1521 1521 1522 1523 1523
1510 1505 1506 1508 1502 1501 1503 1504 1503 1502 1502 1499 1496 1494 1493 1496 1498 1500 1501 1502 1503 1504 1505 1506 1507 1507 1508 1509 1510 1510 1511 1512 1513 1514 1514 1515 1516 1517 1517 1518 1519 1519 1520 1520
1508 1504 1502 1502 1501 1502 1504 1504 1503 1502 1499 1499 1494 1494 1494 1495 1498 1499 1500 1501 1502 1503 1504 1504 1504 1505 1506 1506 1507 1508 1509 1509 1510 1511 1512 1513 1514 1514 1515 1515 1516 1517 1517 1518
1507 1504 1503 1502 1501 1501 1503 1501 1500 1500 1498 1497 1496 1496 1495 1497 1498 1498 1498 1499 1500 1501 1501 1502 1502 1503 1503 1504 1504 1505 1506 1506 1507 1508 1509 1510 1511 1511 1512 1512 1513 1513 1514 1515
1505 1504 1504 1501 1500 1501 1501 1498 1498 1498 1496 1496 1495 1495 1496 1496 1497 1497 1498 1498 1498 1499 1499 1500 1500 1500 1500 1501 1501 1502 1502 1503 1504 1505 1506 1507 1508 1508 1509 1510 1510 1511 1511 1512
1504 1503 1503 1501 1501 1505 1499 1496 1497 1497 1497 1496 1495 1496 1496 1497 1497 1497 1497 1497 1497 1497 1497 1497 1497 1497 1498 1498 1498 1499 1499 1500 1501 1502 1503 1504 1504 1505 1506 1507 1507 1508 1508 1509
1503 1502 1502 1501 1500 1496 1496 1496 1497 1496 1496 1496 1495 1496 1496 1497 1496 1495 1495 1496 1496 1496 1495 1495 1495 1495 1495 1495 1495 1496 1496 1497 1498 1499 1499 1500 1501 1502 1503 1503 1504 1505 1505 1506
1503 1502 1501 1501 1502 1499 1495 1495 1496 1497 1495 1495 1496 1496 1496 1496 1493 1492 1494 1494 1494 1493 1493 1492 1491 1491 1491 1491 1492 1492 1493 1494 1494 1495 1496 1497 1498 1499 1499 1500 1501 1502 1502 1502
1502 1502 1501 1499 1497 1492 1496 1496 1496 1499 1495 1496 1496 1495 1496 1495 1494 1494 1493 1492 1491 1490 1489 1489 1488 1488 1488 1488 1488 1489 1490 1490 1491 1492 1492 1493 1494 1495 1496 1497 1497 1498 1499 1499
1497 1498 1498 1497 1497 1496 1496 1496 1497 1496 1496 1496 1495 1495 1495 1494 1493 1492 1491 1489 1488 1487 1486 1485 1485 1484 1484 1484 1485 1485 1486 1487 1488 1488 1489 1490 1491 1492 1493 1493 1494 1495 1495 1495
1496 1496 1494 1495 1496 1495 1496 1496 1497 1497 1496 1495 1495 1494 1493 1492 1491 1489 1488 1487 1486 1485 1483 1483 1482 1481 1481 1481 1482 1482 1482 1483 1484 1485 1486 1487 1488 1489 1489 1490 1490 1491 1491 1492
1495 1498 1496 1495 1493 1495 1496 1496 1496 1496 1495 1494 1493 1492 1491 1490 1488 1487 1486 1484 1483 1482 1481 1480 1479 1479 1478 1478 1479 1479 1479 1480 1481 1482 1483 1483 1484 1485 1486 1486 1487 1487 1488 1488
1494 1496 1494 1492 1493 1494 1493 1494 1494 1494 1493 1492 1491 1490 1489 1487 1486 1485 1483 1482 1481 1479 1479 1478 1477 1476 1476 1476 1476 1476 1477 1477 1478 1479 1480 1480 1481 1482 1483 1483 1484 1484 1485 1485
1493 1493 1492 1489 1491 1492 1492 1492 1492 1491 1490 1489 1488 1487 1486 1485 1483 1482 1481 1480 1479 1477 1477 1476 1475 1474 1474 1473 1474 1474 1474 1475 1476 1476 1477 1477 1478 1479 1479 1480 1481 1481 1482 1482